Location: Newark
(44.6028°N, 124.0883°W)
Time: 00:19:29
(UTC+00:00)

A-11 Canister half - Pass Details

Date: 23 October 2019
Orbit: 1514 x 1685 km, 47.2° (Epoch: 20 November)

Event Time Altitude Azimuth Distance (km) Brightness Sun altitude
Exits shadow 10:43:15 66° 73° (ENE) 1,741 9.2 -41.9°
Drops below altitude 10° 10:51:08 10° 72° (ENE) 3,780 11.7 -40.7°
Sets 10:54:10 0° 73° (ENE) 4,744 12.4 -40.2°
